EW1268 Weather Reports


Display with metric or nautical units.
time (UTC)temp
F
wind
direction
speed
MPH
gust
MPH
rain 1hr
in
rain 24hr
in
rain mn
in
humidity
%
barometer
mb
20260505121533 70 224 2.0 7.0 0.00 0.00 0.00 93 1008.8
20260505121005 70 186 2.0 7.0 0.00 0.00 0.00 93 1008.7
20260505120511 70 196 1.0 7.0 0.00 0.00 0.00 93 1008.6
20260505120048 70 190 1.0 7.0 0.00 0.00 0.00 93 1008.6
20260505115511 70 169 2.0 8.0 0.00 0.00 0.00 93 1008.5
20260505115015 70 173 3.0 8.0 0.00 0.00 0.00 93 1008.2
20260505114526 70 190 3.0 8.0 0.00 0.00 0.00 93 1008.3
20260505114012 70 186 2.0 5.0 0.00 0.00 0.00 93 1008.6
20260505113510 70 188 1.0 6.0 0.00 0.00 0.00 93 1008.7
20260505113013 70 165 2.0 6.0 0.00 0.00 0.00 93 1008.7
20260505112508 70 190 1.0 6.0 0.00 0.00 0.00 93 1008.6
20260505112006 70 168 3.0 6.0 0.00 0.00 0.00 93 1008.6
20260505111526 70 178 3.0 8.0 0.00 0.00 0.00 93 1008.4
20260505111010 70 169 3.0 8.0 0.00 0.00 0.00 93 1008.4
20260505110509 70 192 3.0 8.0 0.00 0.00 0.00 92 1008.3
20260505102015 70 205 3.0 9.0 0.00 0.00 0.00 92 1008.6
20260505101529 70 143 3.0 9.0 0.00 0.00 0.00 92 1008.5
20260505101013 70 178 3.0 9.0 0.00 0.00 0.00 92 1008.5
20260505100508 70 193 4.0 9.0 0.00 0.00 0.00 92 1008.6
20260505100026 70 168 3.0 7.0 0.00 0.00 0.00 92 1008.7
20260505095509 70 200 3.0 7.0 0.00 0.00 0.00 92 1008.7
20260505095013 70 93 3.0 9.0 0.00 0.00 0.00 92 1008.7
20260505094528 70 161 2.0 9.0 0.00 0.00 0.00 92 1008.7
20260505094011 70 160 4.0 7.0 0.00 0.00 0.00 92 1008.5
20260505093511 70 200 2.0 7.0 0.00 0.00 0.00 92 1008.5
20260505093030 70 173 3.0 7.0 0.00 0.00 0.00 92 1008.6
20260505092507 70 168 3.0 7.0 0.00 0.00 0.00 91 1008.7
20260505092012 70 207 1.0 8.0 0.00 0.00 0.00 91 1008.7
20260505091527 70 178 1.0 8.0 0.00 0.00 0.00 91 1008.7
20260505091012 70 173 2.0 7.0 0.00 0.00 0.00 91 1008.9
20260505090508 70 178 2.0 7.0 0.00 0.00 0.00 91 1008.9
20260505090026 70 198 2.0 7.0 0.00 0.00 0.00 91 1008.9
20260505085510 70 178 2.0 8.0 0.00 0.00 0.00 91 1008.8
20260505085006 70 171 3.0 8.0 0.00 0.00 0.00 91 1008.8
20260505084524 70 211 3.0 7.0 0.00 0.00 0.00 91 1008.9
20260505084013 70 153 2.0 6.0 0.00 0.00 0.00 91 1008.9
20260505083514 70 178 3.0 6.0 0.00 0.00 0.00 91 1009.0
20260505083026 70 205 2.0 6.0 0.00 0.00 0.00 91 1009.1
20260505082509 70 171 2.0 6.0 0.00 0.00 0.00 91 1009.2
20260505082004 70 221 2.0 5.0 0.00 0.00 0.00 91 1009.1
20260505081514 70 190 1.0 6.0 0.00 0.00 0.00 91 1009.1
20260505081006 70 205 2.0 10.0 0.00 0.00 0.00 91 1009.2
20260505080508 70 193 4.0 10.0 0.00 0.00 0.00 90 1009.3
20260505080024 70 165 3.0 9.0 0.00 0.00 0.00 90 1009.3
20260505075509 70 178 1.0 6.0 0.00 0.00 0.00 90 1009.4
20260505075008 70 157 2.0 6.0 0.00 0.00 0.00 90 1009.4
20260505074527 70 163 2.0 8.0 0.00 0.00 0.00 90 1009.4
20260505074006 70 221 2.0 9.0 0.00 0.00 0.00 90 1009.3
20260505073507 70 188 3.0 9.0 0.00 0.00 0.00 90 1009.4
20260505073028 70 178 3.0 9.0 0.00 0.00 0.00 90 1009.4
20260505072511 70 211 3.0 10.0 0.00 0.00 0.00 90 1009.4
20260505072007 70 163 3.0 10.0 0.00 0.00 0.00 90 1009.4
20260505071526 70 178 3.0 10.0 0.00 0.00 0.00 90 1009.4
20260505071010 70 188 3.0 11.0 0.00 0.00 0.00 90 1009.6
20260505070513 70 155 3.0 11.0 0.00 0.00 0.00 90 1009.7
20260505070013 70 178 3.0 8.0 0.00 0.00 0.00 89 1009.6
20260505065508 70 168 3.0 8.0 0.00 0.00 0.00 89 1009.7
20260505065008 70 175 3.0 7.0 0.00 0.00 0.00 89 1009.8
20260505064536 70 171 3.0 8.0 0.00 0.00 0.00 89 1009.9
20260505064007 70 199 3.0 9.0 0.00 0.00 0.00 89 1009.9
20260505063508 70 159 3.0 10.0 0.00 0.00 0.00 89 1010.0
20260505063025 70 175 3.0 10.0 0.00 0.00 0.00 89 1010.2
20260505062511 70 184 4.0 13.0 0.00 0.00 0.00 89 1010.3
20260505062004 70 199 3.0 13.0 0.00 0.00 0.00 89 1010.2
20260505061528 70 169 3.0 10.0 0.00 0.00 0.00 89 1010.2
20260505061006 70 173 3.0 10.0 0.00 0.00 0.00 89 1010.3
20260505060510 70 185 3.0 8.0 0.00 0.00 0.00 89 1010.5
20260505060024 70 169 4.0 9.0 0.00 0.00 0.00 89 1010.3
20260505055512 70 189 3.0 9.0 0.00 0.00 0.00 88 1010.2
20260505055012 70 178 4.0 9.0 0.00 0.00 0.00 88 1010.3
20260505054547 70 196 4.0 10.0 0.00 0.00 0.00 88 1010.2
20260505054012 70 195 3.0 10.0 0.00 0.00 0.00 88 1010.2
20260505053507 70 236 4.0 10.0 0.00 0.00 0.00 88 1010.3
20260505053018 70 182 5.0 11.0 0.00 0.00 0.00 88 1010.4
20260505052508 70 173 5.0 11.0 0.00 0.00 0.00 88 1010.7
20260505052008 70 178 3.0 10.0 0.00 0.00 0.00 88 1010.8
20260505051526 70 200 3.0 10.0 0.00 0.00 0.00 88 1010.8
20260505051014 70 163 3.0 8.0 0.00 0.00 0.00 88 1010.8
20260505050509 70 164 4.0 9.0 0.00 0.00 0.00 88 1010.8
20260505041516 71 202 3.0 12.0 0.00 0.00 0.00 87 1010.8
20260505041007 71 194 4.0 12.0 0.00 0.00 0.00 87 1010.8
20260505040507 71 185 5.0 10.0 0.00 0.00 0.00 86 1010.9
20260505040024 71 175 5.0 11.0 0.00 0.00 0.00 86 1010.9
20260505035507 71 170 4.0 13.0 0.00 0.00 0.00 86 1010.9
20260505035010 71 202 6.0 13.0 0.00 0.00 0.00 86 1010.8
20260505034527 71 197 3.0 10.0 0.00 0.00 0.00 86 1010.9
20260505034011 71 221 3.0 11.0 0.00 0.00 0.00 86 1011.0
20260505033507 71 171 5.0 11.0 0.00 0.00 0.00 86 1011.0
20260505033022 71 169 3.0 10.0 0.00 0.00 0.00 86 1011.1
20260505032509 71 183 4.0 10.0 0.00 0.00 0.00 86 1011.1
20260505032011 72 157 4.0 11.0 0.00 0.00 0.00 86 1011.0
20260505031539 72 171 5.0 11.0 0.00 0.00 0.00 85 1011.1
20260505031007 72 183 4.0 11.0 0.00 0.00 0.00 85 1011.0
20260505030511 72 198 3.0 11.0 0.00 0.00 0.00 85 1011.0
20260505030031 72 175 5.0 11.0 0.00 0.00 0.00 85 1010.9
20260505025507 72 188 5.0 11.0 0.00 0.00 0.00 85 1011.0
20260505025008 72 182 4.0 10.0 0.00 0.00 0.00 84 1011.0
20260505024531 73 182 3.0 11.0 0.00 0.00 0.00 84 1011.0
20260505024009 73 51 4.0 11.0 0.00 0.00 0.00 84 1011.0
20260505023507 73 182 4.0 11.0 0.00 0.00 0.00 84 1011.0
20260505023030 73 197 5.0 11.0 0.00 0.00 0.00 84 1011.0
20260505022507 73 213 4.0 11.0 0.00 0.00 0.00 84 1010.9
20260505022011 73 182 5.0 14.0 0.00 0.00 0.00 84 1010.8
20260505021520 73 186 6.0 14.0 0.00 0.00 0.00 83 1010.8
20260505021011 73 177 5.0 12.0 0.00 0.00 0.00 83 1010.9
20260505020510 73 178 6.0 15.0 0.00 0.00 0.00 83 1010.9
20260505020031 73 192 5.0 15.0 0.00 0.00 0.00 83 1010.7
20260505015518 74 207 4.0 14.0 0.00 0.00 0.00 83 1010.7
20260505015010 74 198 4.0 11.0 0.00 0.00 0.00 82 1010.8
20260505014529 74 160 4.0 9.0 0.00 0.00 0.00 82 1010.8
20260505014012 74 167 4.0 15.0 0.00 0.00 0.00 82 1010.8
20260505013509 74 162 6.0 15.0 0.00 0.00 0.00 82 1010.6
20260505013024 74 160 5.0 13.0 0.00 0.00 0.00 82 1010.5
20260505012510 74 199 5.0 13.0 0.00 0.00 0.00 82 1010.4
20260505012010 74 51 4.0 10.0 0.00 0.00 0.00 81 1010.4
20260505011533 75 153 4.0 10.0 0.00 0.00 0.00 80 1010.4
20260505011010 75 167 3.0 10.0 0.00 0.00 0.00 80 1010.3
20260505010513 75 205 4.0 11.0 0.00 0.00 0.00 79 1010.4
20260505010026 75 163 5.0 11.0 0.00 0.00 0.00 79 1010.4
20260505005508 76 159 5.0 15.0 0.00 0.00 0.00 78 1010.4
20260505005008 76 193 6.0 15.0 0.00 0.00 0.00 78 1010.4
20260505004541 77 221 5.0 13.0 0.00 0.00 0.00 78 1010.4
20260505004009 77 182 5.0 13.0 0.00 0.00 0.00 77 1010.4
20260505003509 77 128 4.0 14.0 0.00 0.00 0.00 77 1010.3
20260505003029 77 148 4.0 14.0 0.00 0.00 0.00 77 1010.2
20260505002518 78 360 5.0 12.0 0.00 0.00 0.00 76 1010.3
20260505002017 78 148 5.0 12.0 0.00 0.00 0.00 76 1010.2
20260505001520 78 191 5.0 12.0 0.00 0.00 0.00 75 1010.2
20260505001017 79 190 4.0 11.0 0.00 0.00 0.00 75 1010.2
20260505000513 80 194 5.0 13.0 0.00 0.00 0.00 74 1010.1
20260505000036 80 173 5.0 13.0 0.00 0.00 0.00 74 1010.2
20260504235510 80 171 4.0 13.0 0.00 0.00 0.00 74 1010.3
20260504235008 79 159 5.0 11.0 0.00 0.00 0.00 75 1010.2
20260504234528 79 173 4.0 11.0 0.00 0.00 0.00 76 1010.3
20260504234010 78 216 4.0 14.0 0.00 0.00 0.00 76 1010.5
20260504233513 78 182 7.0 15.0 0.00 0.00 0.00 76 1010.6
20260504233019 78 242 5.0 15.0 0.00 0.00 0.00 75 1010.5
20260504232510 79 157 4.0 11.0 0.00 0.00 0.00 76 1010.7
20260504232010 79 193 4.0 12.0 0.00 0.00 0.00 75 1010.8
20260504231531 79 177 6.0 14.0 0.00 0.00 0.00 74 1010.8
20260504231009 79 166 5.0 14.0 0.00 0.00 0.00 73 1010.7
20260504230511 79 93 7.0 13.0 0.00 0.00 0.00 73 1010.8
20260504230030 79 93 6.0 13.0 0.00 0.00 0.00 73 1010.8
20260504225508 79 173 6.0 13.0 0.00 0.00 0.00 73 1010.9
20260504225012 79 197 4.0 13.0 0.00 0.00 0.00 72 1010.9
20260504224524 79 169 6.0 13.0 0.00 0.00 0.00 72 1010.9
20260504224013 80 287 5.0 13.0 0.00 0.00 0.00 72 1011.0
20260504223512 80 173 5.0 11.0 0.00 0.00 0.00 72 1010.9
20260504223026 80 183 3.0 12.0 0.00 0.00 0.00 72 1010.9
20260504222511 80 224 3.0 12.0 0.00 0.00 0.00 71 1011.0
20260504222008 80 202 4.0 11.0 0.00 0.00 0.00 71 1011.1
20260504221519 80 150 6.0 12.0 0.00 0.00 0.00 71 1011.1
20260504221008 80 218 4.0 13.0 0.00 0.00 0.00 73 1011.2
20260504220510 80 287 6.0 13.0 0.00 0.00 0.00 72 1011.3
20260504220028 79 183 5.0 14.0 0.00 0.00 0.00 73 1011.4
20260504215510 79 175 4.0 14.0 0.00 0.00 0.00 72 1011.6
20260504215008 79 255 3.0 11.0 0.00 0.00 0.00 71 1011.6
20260504214529 80 229 5.0 11.0 0.00 0.00 0.00 71 1011.5
20260504214012 80 190 4.0 11.0 0.00 0.00 0.00 71 1011.6
20260504213511 80 190 5.0 14.0 0.00 0.00 0.00 69 1011.7
20260504213028 81 205 5.0 16.0 0.00 0.00 0.00 68 1011.7
20260504212507 81 136 7.0 16.0 0.00 0.00 0.00 68 1011.7
20260504212012 82 209 4.0 14.0 0.00 0.00 0.00 69 1011.8
20260504211527 82 211 3.0 14.0 0.00 0.00 0.00 68 1011.9
20260504211009 82 178 4.0 16.0 0.00 0.00 0.00 67 1012.0
20260504210511 82 187 3.0 16.0 0.00 0.00 0.00 67 1011.8
20260504210026 82 178 5.0 14.0 0.00 0.00 0.00 68 1012.0
20260504205508 83 229 3.0 9.0 0.00 0.00 0.00 66 1012.0
20260504205008 82 171 4.0 9.0 0.00 0.00 0.00 67 1012.1
20260504204523 82 257 3.0 11.0 0.00 0.00 0.00 66 1012.3
20260504204008 83 137 5.0 11.0 0.00 0.00 0.00 67 1012.4
20260504203509 83 166 4.0 10.0 0.00 0.00 0.00 65 1012.3
20260504203031 83 178 4.0 12.0 0.00 0.00 0.00 66 1012.3
20260504202515 83 202 4.0 12.0 0.00 0.00 0.00 65 1012.3
20260504202017 83 178 3.0 12.0 0.00 0.00 0.00 67 1012.3
20260504201520 83 185 6.0 12.0 0.00 0.00 0.00 68 1012.5
20260504201013 82 157 3.0 16.0 0.00 0.00 0.00 67 1012.6
20260504200510 83 138 5.0 16.0 0.00 0.00 0.00 67 1012.9
20260504200026 83 165 4.0 11.0 0.00 0.00 0.00 67 1012.8
20260504195509 82 206 3.0 10.0 0.00 0.00 0.00 67 1012.8
20260504195010 83 165 3.0 11.0 0.00 0.00 0.00 65 1012.9
20260504194531 83 193 4.0 11.0 0.00 0.00 0.00 65 1013.0
20260504194008 83 178 3.0 10.0 0.00 0.00 0.00 69 1013.1
20260504193508 82 238 3.0 10.0 0.00 0.00 0.00 67 1013.1
20260504193024 83 247 4.0 12.0 0.00 0.00 0.00 67 1013.2
20260504192510 84 286 3.0 13.0 0.00 0.00 0.00 64 1013.2
20260504192010 84 175 6.0 13.0 0.00 0.00 0.00 66 1013.2
20260504191527 83 178 5.0 12.0 0.00 0.00 0.00 68 1013.3
20260504191007 83 155 6.0 12.0 0.00 0.00 0.00 66 1013.3
20260504190515 82 178 2.0 11.0 0.00 0.00 0.00 69 1013.3
20260504190030 83 205 5.0 12.0 0.00 0.00 0.00 65 1013.4
20260504185512 83 184 5.0 13.0 0.00 0.00 0.00 68 1013.5
20260504185009 83 196 5.0 13.0 0.00 0.00 0.00 65 1013.5
20260504184526 82 238 5.0 13.0 0.00 0.00 0.00 67 1013.8
20260504184011 82 171 5.0 14.0 0.00 0.00 0.00 66 1013.8
20260504183514 83 157 6.0 14.0 0.00 0.00 0.00 65 1013.7
20260504183029 83 183 4.0 14.0 0.00 0.00 0.00 67 1013.8
20260504182507 82 185 4.0 11.0 0.00 0.00 0.00 68 1013.8
20260504182011 83 178 4.0 11.0 0.00 0.00 0.00 67 1013.9
20260504181532 83 137 3.0 10.0 0.00 0.00 0.00 64 1013.9
20260504181010 83 161 3.0 12.0 0.00 0.00 0.00 66 1014.1
20260504180513 83 216 6.0 12.0 0.00 0.00 0.00 68 1014.1
20260504180011 83 183 5.0 14.0 0.00 0.00 0.00 68 1014.1
20260504175508 82 171 6.0 15.0 0.00 0.00 0.00 66 1014.3
20260504175004 82 193 6.0 15.0 0.00 0.00 0.00 67 1014.3
20260504174519 81 182 4.0 15.0 0.00 0.00 0.00 66 1014.5
20260504174006 82 170 6.0 15.0 0.00 0.00 0.00 69 1014.5
20260504173507 82 178 6.0 17.0 0.00 0.00 0.00 67 1014.7
20260504173019 82 142 6.0 17.0 0.00 0.00 0.00 68 1014.6
20260504172505 81 163 7.0 16.0 0.00 0.00 0.00 68 1014.5
20260504172004 80 157 3.0 13.0 0.00 0.00 0.00 72 1014.9
20260504171512 80 247 4.0 13.0 0.00 0.00 0.00 69 1014.9
20260504171007 80 157 4.0 13.0 0.00 0.00 0.00 67 1015.2
20260504170506 80 183 5.0 16.0 0.00 0.00 0.00 67 1015.1
20260504151007 75 188 4.0 13.0 0.00 0.00 0.00 75 1015.8
20260504150510 75 221 7.0 12.0 0.00 0.00 0.00 75 1015.9
20260504141008 69 173 4.0 9.0 0.00 0.00 0.00 82 1015.8
20260504140508 68 184 4.0 9.0 0.00 0.00 0.00 83 1015.8
20260504130511 59 163 1.0 4.0 0.00 0.00 0.00 92 1015.7